CDT,Max TemperatureF,Mean TemperatureF,Min TemperatureF,Max Dew PointF,MeanDew PointF,Min DewpointF,Max Humidity, Mean Humidity, Min Humidity, Max Sea Level PressureIn, Mean Sea Level PressureIn, Min Sea Level PressureIn, Max VisibilityMiles, Mean VisibilityMiles, Min VisibilityMiles, Max Wind SpeedMPH, Mean Wind SpeedMPH, Max Gust SpeedMPH,PrecipitationIn, CloudCover, Events, WindDirDegrees
2013-10-1,84,78,72,74,73,71,97,88,66,30.02,29.98,29.94,10,10,5,9,1,10,0.00,2,Rain-Thunderstorm,114
2013-10-2,84,78,72,75,73,71,99,88,67,30.04,30.00,29.95,10,10,3,9,1,,0.23,3,Rain-Thunderstorm,87
2013-10-3,89,80,70,76,73,70,100,83,53,30.02,29.97,29.92,10,8,1,9,2,,0.00,3,,100
2013-10-4,87,80,72,75,73,71,98,83,62,30.02,29.98,29.93,10,10,7,14,4,23,0.00,3,Rain,114
2013-10-5,85,78,73,76,74,71,97,87,67,29.98,29.93,29.88,10,10,4,14,3,21,0.18,4,Rain,110
2013-10-6,79,70,58,74,67,52,99,84,63,29.98,29.89,29.85,10,10,5,14,3,22,0.01,5,Rain,322
2013-10-7,75,65,55,59,53,48,95,71,45,30.05,30.01,29.97,10,10,10,13,4,20,0.00,0,,345
2013-10-8,77,66,54,62,55,52,97,75,45,30.07,30.03,29.98,10,10,10,8,3,,0.00,0,,355
2013-10-9,81,67,53,64,58,53,99,80,45,30.10,30.05,30.01,10,10,7,5,0,,0.00,0,,56
2013-10-10,82,72,61,69,65,60,100,85,52,30.11,30.05,29.99,10,7,0,5,0,,0.00,4,Fog,41
2013-10-11,86,74,64,74,69,64,100,89,57,30.04,29.99,29.95,10,7,0,8,1,,0.00,5,Fog-Rain,136
2013-10-12,88,77,66,74,70,66,99,84,51,30.11,30.03,29.98,10,9,0,7,2,,0.00,2,Fog-Rain-Thunderstorm,174
2013-10-13,86,78,70,75,71,69,99,86,58,30.16,30.10,30.03,10,9,4,6,2,,0.00,3,,278
2013-10-14,85,76,66,70,65,60,99,77,42,30.12,30.07,30.01,10,10,4,9,1,,0.00,0,,69
2013-10-15,85,74,64,73,68,64,99,82,51,30.04,30.00,29.93,10,9,4,8,1,,0.04,4,Rain,146
2013-10-16,79,72,66,72,70,66,100,89,71,30.00,29.95,29.90,10,9,1,8,1,,0.03,6,,171
2013-10-17,75,70,64,72,66,59,98,86,71,30.02,29.96,29.92,10,10,5,10,5,25,0.00,7,,335
2013-10-18,73,66,58,62,58,54,97,80,53,30.05,29.99,29.93,10,10,10,10,3,,0.04,2,Rain,27
2013-10-19,72,65,59,63,60,57,99,88,64,30.04,29.98,29.91,10,9,2,10,4,9,0.89,5,Rain,359
2013-10-20,74,63,52,60,55,50,99,80,49,30.09,30.03,29.98,10,10,7,7,3,,0.00,1,,16
2013-10-21,71,62,53,64,60,53,100,90,73,30.06,30.01,29.94,10,9,0,5,1,,0.00,3,Fog-Rain,48
2013-10-22,78,68,57,64,61,57,98,82,54,30.03,29.98,29.93,10,10,7,12,3,17,0.00,4,,326
2013-10-23,75,63,51,57,53,47,100,77,37,30.14,30.09,30.03,10,10,1,9,3,,0.00,0,,344
2013-10-24,79,62,47,60,52,46,99,75,32,30.23,30.18,30.13,10,10,7,5,0,,0.00,0,,162
2013-10-25,69,60,51,55,49,44,97,72,40,30.39,30.31,30.21,10,10,10,12,3,17,0.00,0,,27
2013-10-26,75,60,45,58,49,42,97,74,39,30.30,30.23,30.16,10,10,10,6,1,,0.00,0,,127
2013-10-27,72,61,50,66,59,49,100,91,73,30.16,30.10,30.05,10,8,0,9,1,,0.00,3,Rain,155
2013-10-28,82,70,58,67,63,58,100,82,53,30.18,30.12,30.06,10,9,0,7,1,,0.00,2,Fog,134
2013-10-29,80,70,59,67,64,60,99,78,56,30.21,30.17,30.14,10,8,1,13,3,,0.00,1,,117
2013-10-30,79,70,62,69,66,62,100,85,66,30.18,30.11,30.01,10,8,2,10,3,16,0.00,4,,120
2013-10-31,81,74,67,72,69,66,100,89,68,30.00,29.89,29.81,10,9,3,21,7,32,0.78,6,Rain,164